| time (UTC) | temp F | wind direction | speed MPH | gust MPH | rain 1hr in | rain 24hr in | rain mn in | humidity % | barometer mb |
| 20260904102044 | 72 | 0 | 2.0 | 8.0 | 0.00 | 0.00 | 0.00 | 95 | 1013.6 |
| 20260904101556 | 72 | 9 | 1.0 | 6.0 | 0.00 | 0.00 | 0.00 | 95 | 1013.6 |
| 20260904101043 | 72 | 0 | 1.0 | 7.0 | 0.00 | 0.00 | 0.00 | 95 | 1013.5 |
| 20260904100544 | 72 | 19 | 2.0 | 7.0 | 0.00 | 0.00 | 0.00 | 95 | 1013.4 |
| 20260904100112 | 72 | 22 | 1.0 | 6.0 | 0.00 | 0.00 | 0.00 | 95 | 1013.5 |
| 20260904095544 | 72 | 32 | 0.0 | 6.0 | 0.00 | 0.00 | 0.00 | 95 | 1013.5 |
| 20260904095045 | 72 | 48 | 2.0 | 6.0 | 0.00 | 0.00 | 0.00 | 95 | 1013.3 |
| 20260904094559 | 72 | 0 | 2.0 | 6.0 | 0.00 | 0.00 | 0.00 | 95 | 1013.1 |
| 20260904094043 | 72 | 15 | 1.0 | 5.0 | 0.00 | 0.00 | 0.00 | 95 | 1013.5 |
| 20260904093545 | 72 | 0 | 0.0 | 0.0 | 0.00 | 0.00 | 0.00 | 95 | 1013.1 |
| 20260904093056 | 72 | 0 | 0.0 | 0.0 | 0.00 | 0.00 | 0.00 | 95 | 1012.9 |
| 20260904092545 | 72 | 0 | 0.0 | 0.0 | 0.00 | 0.00 | 0.00 | 95 | 1012.9 |
| 20260904092044 | 72 | 0 | 0.0 | 0.0 | 0.00 | 0.00 | 0.00 | 95 | 1012.9 |
| 20260904091556 | 72 | 0 | 0.0 | 0.0 | 0.00 | 0.00 | 0.00 | 95 | 1012.8 |
| 20260904091043 | 72 | 0 | 0.0 | 0.0 | 0.00 | 0.00 | 0.00 | 95 | 1012.7 |
| 20260904090543 | 72 | 0 | 0.0 | 0.0 | 0.00 | 0.00 | 0.00 | 95 | 1012.8 |
| 20260904090100 | 72 | 0 | 0.0 | 0.0 | 0.00 | 0.00 | 0.00 | 95 | 1012.8 |
| 20260904085545 | 72 | 0 | 0.0 | 0.0 | 0.00 | 0.00 | 0.00 | 95 | 1012.8 |
| 20260904085047 | 72 | 0 | 0.0 | 0.0 | 0.00 | 0.00 | 0.00 | 95 | 1012.5 |
| 20260904084608 | 72 | 0 | 0.0 | 0.0 | 0.00 | 0.00 | 0.00 | 95 | 1012.4 |
| 20260904084048 | 72 | 0 | 0.0 | 0.0 | 0.00 | 0.00 | 0.00 | 95 | 1012.6 |
| 20260904083545 | 72 | 0 | 0.0 | 0.0 | 0.00 | 0.00 | 0.00 | 95 | 1012.5 |
| 20260904083057 | 72 | 0 | 0.0 | 0.0 | 0.00 | 0.00 | 0.00 | 95 | 1012.3 |
| 20260904082552 | 72 | 0 | 0.0 | 0.0 | 0.00 | 0.00 | 0.00 | 95 | 1012.3 |
| 20260904082045 | 72 | 0 | 0.0 | 0.0 | 0.00 | 0.00 | 0.00 | 95 | 1012.1 |
| 20260904081601 | 71 | 0 | 0.0 | 0.0 | 0.00 | 0.00 | 0.00 | 95 | 1012.2 |
| 20260904081047 | 71 | 0 | 0.0 | 0.0 | 0.00 | 0.00 | 0.00 | 95 | 1012.5 |
| 20260904080543 | 71 | 0 | 0.0 | 0.0 | 0.00 | 0.00 | 0.00 | 95 | 1012.6 |
| 20260904075547 | 71 | 0 | 0.0 | 0.0 | 0.00 | 0.00 | 0.00 | 95 | 1012.9 |
| 20260904075045 | 71 | 0 | 0.0 | 0.0 | 0.00 | 0.00 | 0.00 | 95 | 1012.8 |
| 20260904074612 | 71 | 0 | 0.0 | 0.0 | 0.00 | 0.00 | 0.00 | 95 | 1012.9 |
| 20260904074045 | 71 | 0 | 0.0 | 0.0 | 0.00 | 0.00 | 0.00 | 95 | 1013.1 |
| 20260904073547 | 71 | 0 | 0.0 | 0.0 | 0.00 | 0.00 | 0.00 | 95 | 1013.1 |
| 20260904073101 | 71 | 0 | 0.0 | 0.0 | 0.00 | 0.00 | 0.00 | 95 | 1013.1 |
| 20260904072547 | 71 | 0 | 0.0 | 0.0 | 0.00 | 0.00 | 0.00 | 95 | 1013.0 |
| 20260904072043 | 71 | 0 | 0.0 | 3.0 | 0.00 | 0.00 | 0.00 | 95 | 1013.3 |
| 20260904071605 | 71 | 0 | 0.0 | 3.0 | 0.00 | 0.00 | 0.00 | 95 | 1013.2 |
| 20260904071045 | 71 | 0 | 0.0 | 6.0 | 0.00 | 0.00 | 0.00 | 95 | 1013.5 |
| 20260904070547 | 71 | 0 | 0.0 | 6.0 | 0.00 | 0.00 | 0.00 | 95 | 1013.4 |
| 20260904065546 | 71 | 10 | 1.0 | 3.0 | 0.00 | 0.00 | 0.00 | 94 | 1013.2 |
| 20260904065049 | 71 | 0 | 0.0 | 5.0 | 0.00 | 0.00 | 0.00 | 94 | 1013.3 |
| 20260904064602 | 71 | 0 | 0.0 | 5.0 | 0.00 | 0.00 | 0.00 | 94 | 1013.3 |
| 20260904064043 | 71 | 24 | 2.0 | 5.0 | 0.00 | 0.00 | 0.00 | 94 | 1013.3 |
| 20260904063543 | 71 | 19 | 0.0 | 3.0 | 0.00 | 0.00 | 0.00 | 94 | 1013.1 |
| 20260904063107 | 71 | 0 | 0.0 | 3.0 | 0.00 | 0.00 | 0.00 | 94 | 1013.3 |
| 20260904062545 | 71 | 0 | 0.0 | 3.0 | 0.00 | 0.00 | 0.00 | 94 | 1013.4 |
| 20260904062044 | 71 | 0 | 0.0 | 1.0 | 0.00 | 0.00 | 0.00 | 94 | 1013.4 |
| 20260904061603 | 71 | 0 | 0.0 | 0.0 | 0.00 | 0.00 | 0.00 | 93 | 1013.1 |
| 20260904061049 | 71 | 0 | 0.0 | 0.0 | 0.00 | 0.00 | 0.00 | 93 | 1013.0 |
| 20260904060544 | 72 | 0 | 0.0 | 0.0 | 0.00 | 0.00 | 0.00 | 93 | 1013.2 |
| 20260904060106 | 72 | 0 | 0.0 | 0.0 | 0.00 | 0.00 | 0.00 | 93 | 1013.1 |
| 20260904055545 | 72 | 0 | 0.0 | 0.0 | 0.00 | 0.00 | 0.00 | 94 | 1013.3 |
| 20260904055045 | 72 | 0 | 0.0 | 0.0 | 0.00 | 0.00 | 0.00 | 94 | 1013.5 |
| 20260904054606 | 72 | 0 | 0.0 | 0.0 | 0.00 | 0.00 | 0.00 | 94 | 1013.5 |
| 20260904054044 | 72 | 0 | 0.0 | 1.0 | 0.00 | 0.00 | 0.00 | 94 | 1013.6 |
| 20260904053548 | 72 | 0 | 0.0 | 1.0 | 0.00 | 0.00 | 0.00 | 94 | 1013.6 |
| 20260904053105 | 72 | 0 | 0.0 | 1.0 | 0.00 | 0.00 | 0.00 | 94 | 1013.5 |
| 20260904052547 | 72 | 0 | 0.0 | 1.0 | 0.00 | 0.00 | 0.00 | 93 | 1013.5 |
| 20260904052047 | 72 | 0 | 0.0 | 1.0 | 0.00 | 0.00 | 0.00 | 93 | 1013.7 |
| 20260904051609 | 72 | 0 | 0.0 | 1.0 | 0.00 | 0.00 | 0.00 | 93 | 1013.9 |
| 20260904051046 | 72 | 0 | 0.0 | 0.0 | 0.00 | 0.00 | 0.00 | 93 | 1013.9 |
| 20260904050546 | 72 | 0 | 0.0 | 0.0 | 0.00 | 0.00 | 0.00 | 93 | 1013.7 |
| 20260904050104 | 72 | 0 | 0.0 | 0.0 | 0.00 | 0.00 | 0.00 | 93 | 1013.8 |
| 20260904045546 | 72 | 0 | 0.0 | 0.0 | 0.00 | 0.00 | 0.00 | 93 | 1013.9 |
| 20260904045045 | 72 | 0 | 0.0 | 0.0 | 0.00 | 0.00 | 0.00 | 93 | 1014.1 |
| 20260904044606 | 72 | 0 | 0.0 | 0.0 | 0.00 | 0.00 | 0.00 | 93 | 1014.1 |
| 20260904044047 | 72 | 0 | 0.0 | 0.0 | 0.00 | 0.00 | 0.00 | 93 | 1013.9 |
| 20260904043547 | 72 | 0 | 0.0 | 0.0 | 0.00 | 0.00 | 0.00 | 93 | 1014.0 |
| 20260904043057 | 72 | 0 | 0.0 | 0.0 | 0.00 | 0.00 | 0.00 | 93 | 1014.1 |
| 20260904042546 | 72 | 0 | 0.0 | 0.0 | 0.00 | 0.00 | 0.00 | 93 | 1014.0 |
| 20260904042048 | 72 | 0 | 0.0 | 0.0 | 0.00 | 0.00 | 0.00 | 92 | 1014.1 |
| 20260904041555 | 72 | 0 | 0.0 | 0.0 | 0.00 | 0.00 | 0.00 | 92 | 1014.1 |
| 20260904041048 | 72 | 0 | 0.0 | 0.0 | 0.00 | 0.00 | 0.00 | 92 | 1014.2 |
| 20260904040549 | 72 | 0 | 0.0 | 0.0 | 0.00 | 0.00 | 0.00 | 92 | 1014.2 |
| 20260904040111 | 72 | 0 | 0.0 | 0.0 | 0.00 | 0.00 | 0.00 | 92 | 1014.0 |
| 20260904035546 | 72 | 0 | 0.0 | 0.0 | 0.00 | 0.01 | 0.00 | 92 | 1014.1 |
| 20260904035042 | 72 | 0 | 0.0 | 0.0 | 0.00 | 0.01 | 0.00 | 92 | 1014.0 |
| 20260904034603 | 72 | 0 | 0.0 | 0.0 | 0.00 | 0.01 | 0.00 | 91 | 1014.0 |
| 20260904034048 | 72 | 0 | 0.0 | 0.0 | 0.00 | 0.01 | 0.00 | 91 | 1014.1 |
| 20260904033546 | 72 | 0 | 0.0 | 0.0 | 0.00 | 0.01 | 0.00 | 91 | 1014.2 |
| 20260904033100 | 72 | 0 | 0.0 | 0.0 | 0.00 | 0.01 | 0.00 | 91 | 1014.4 |
| 20260904032546 | 72 | 0 | 0.0 | 0.0 | 0.00 | 0.01 | 0.00 | 91 | 1014.5 |
| 20260904032047 | 72 | 0 | 0.0 | 0.0 | 0.00 | 0.01 | 0.00 | 91 | 1014.6 |
| 20260904031604 | 72 | 0 | 0.0 | 0.0 | 0.00 | 0.01 | 0.00 | 91 | 1014.7 |
| 20260904031044 | 72 | 0 | 0.0 | 0.0 | 0.00 | 0.01 | 0.00 | 91 | 1014.5 |
| 20260904030546 | 72 | 0 | 0.0 | 0.0 | 0.00 | 0.01 | 0.00 | 91 | 1014.4 |
| 20260904030104 | 72 | 0 | 0.0 | 0.0 | 0.00 | 0.01 | 0.00 | 91 | 1014.5 |
| 20260904025546 | 72 | 0 | 0.0 | 0.0 | 0.00 | 0.01 | 0.00 | 91 | 1014.4 |
| 20260904025043 | 72 | 0 | 0.0 | 0.0 | 0.00 | 0.01 | 0.00 | 91 | 1014.5 |
| 20260904024604 | 72 | 0 | 0.0 | 0.0 | 0.00 | 0.01 | 0.00 | 90 | 1014.4 |
| 20260904024046 | 72 | 0 | 0.0 | 0.0 | 0.00 | 0.01 | 0.00 | 90 | 1014.5 |
| 20260904023546 | 73 | 0 | 0.0 | 0.0 | 0.00 | 0.01 | 0.00 | 90 | 1014.5 |
| 20260904023102 | 73 | 0 | 0.0 | 0.0 | 0.00 | 0.01 | 0.00 | 90 | 1014.5 |
| 20260904022546 | 73 | 0 | 0.0 | 0.0 | 0.00 | 0.01 | 0.00 | 89 | 1014.4 |
| 20260904022047 | 73 | 0 | 0.0 | 0.0 | 0.00 | 0.01 | 0.00 | 89 | 1014.3 |
| 20260904021605 | 73 | 0 | 0.0 | 0.0 | 0.00 | 0.01 | 0.00 | 89 | 1014.3 |
| 20260904021046 | 73 | 0 | 0.0 | 0.0 | 0.00 | 0.01 | 0.00 | 89 | 1014.3 |
| 20260904020546 | 73 | 0 | 0.0 | 0.0 | 0.00 | 0.01 | 0.00 | 89 | 1014.4 |
| 20260904020106 | 73 | 0 | 0.0 | 0.0 | 0.00 | 0.01 | 0.00 | 89 | 1014.4 |
| 20260904015544 | 73 | 0 | 0.0 | 0.0 | 0.00 | 0.01 | 0.00 | 89 | 1014.4 |
| 20260904015046 | 73 | 0 | 0.0 | 0.0 | 0.00 | 0.01 | 0.00 | 88 | 1014.2 |
| 20260904014609 | 73 | 0 | 0.0 | 0.0 | 0.00 | 0.01 | 0.00 | 88 | 1014.1 |
| 20260904014046 | 73 | 0 | 0.0 | 0.0 | 0.00 | 0.01 | 0.00 | 88 | 1013.9 |
| 20260904013548 | 74 | 0 | 0.0 | 0.0 | 0.00 | 0.01 | 0.00 | 88 | 1013.8 |
| 20260904013058 | 74 | 0 | 0.0 | 1.0 | 0.00 | 0.01 | 0.00 | 88 | 1013.9 |
| 20260904012544 | 74 | 0 | 0.0 | 1.0 | 0.00 | 0.01 | 0.00 | 87 | 1013.7 |
| 20260904012044 | 74 | 0 | 0.0 | 1.0 | 0.00 | 0.01 | 0.00 | 87 | 1013.7 |
| 20260904011601 | 74 | 0 | 0.0 | 0.0 | 0.00 | 0.01 | 0.00 | 87 | 1013.6 |
| 20260904011046 | 74 | 0 | 0.0 | 1.0 | 0.00 | 0.01 | 0.00 | 86 | 1013.6 |
| 20260904010544 | 74 | 0 | 0.0 | 1.0 | 0.00 | 0.01 | 0.00 | 86 | 1013.4 |
| 20260904010115 | 74 | 0 | 0.0 | 1.0 | 0.00 | 0.01 | 0.00 | 86 | 1013.5 |
| 20260904005548 | 75 | 0 | 0.0 | 1.0 | 0.00 | 0.01 | 0.00 | 86 | 1013.4 |
| 20260904005044 | 75 | 0 | 0.0 | 0.0 | 0.00 | 0.01 | 0.00 | 86 | 1013.3 |
| 20260904004602 | 75 | 0 | 0.0 | 0.0 | 0.00 | 0.01 | 0.00 | 85 | 1013.3 |
| 20260904004046 | 75 | 0 | 0.0 | 2.0 | 0.00 | 0.01 | 0.00 | 86 | 1013.2 |
| 20260904003545 | 75 | 0 | 0.0 | 2.0 | 0.00 | 0.01 | 0.00 | 86 | 1013.4 |
| 20260904003108 | 75 | 24 | 0.0 | 1.0 | 0.00 | 0.01 | 0.00 | 85 | 1013.4 |
| 20260904002545 | 75 | 0 | 0.0 | 1.0 | 0.00 | 0.01 | 0.00 | 85 | 1013.3 |
| 20260904002047 | 75 | 0 | 0.0 | 1.0 | 0.00 | 0.01 | 0.00 | 85 | 1013.2 |
| 20260904001601 | 76 | 0 | 0.0 | 1.0 | 0.00 | 0.01 | 0.00 | 85 | 1013.4 |
| 20260904001044 | 76 | 0 | 0.0 | 0.0 | 0.00 | 0.01 | 0.00 | 84 | 1013.3 |
| 20260904000544 | 76 | 0 | 0.0 | 0.0 | 0.00 | 0.01 | 0.00 | 84 | 1013.1 |
| 20260904000103 | 76 | 0 | 0.0 | 1.0 | 0.00 | 0.01 | 0.00 | 84 | 1013.1 |
| 20260903235545 | 76 | 0 | 0.0 | 2.0 | 0.00 | 0.01 | 0.00 | 84 | 1013.4 |
| 20260903235044 | 76 | 24 | 0.0 | 2.0 | 0.00 | 0.01 | 0.00 | 84 | 1013.4 |
| 20260903234601 | 76 | 11 | 0.0 | 3.0 | 0.00 | 0.01 | 0.00 | 83 | 1013.2 |
| 20260903234047 | 77 | 0 | 0.0 | 3.0 | 0.00 | 0.01 | 0.00 | 83 | 1013.1 |
| 20260903233548 | 77 | 13 | 0.0 | 1.0 | 0.00 | 0.01 | 0.00 | 82 | 1013.0 |
| 20260903233106 | 77 | 0 | 0.0 | 1.0 | 0.00 | 0.01 | 0.00 | 82 | 1013.0 |
| 20260903232544 | 77 | 0 | 0.0 | 2.0 | 0.00 | 0.01 | 0.00 | 82 | 1013.0 |
| 20260903232045 | 78 | 0 | 0.0 | 2.0 | 0.00 | 0.01 | 0.00 | 81 | 1012.9 |
| 20260903231557 | 78 | 17 | 0.0 | 2.0 | 0.00 | 0.01 | 0.00 | 81 | 1012.8 |
| 20260903231044 | 78 | 0 | 0.0 | 2.0 | 0.00 | 0.01 | 0.00 | 80 | 1012.9 |
| 20260903230544 | 78 | 0 | 0.0 | 2.0 | 0.00 | 0.01 | 0.00 | 80 | 1013.0 |
| 20260903230058 | 79 | 0 | 0.0 | 3.0 | 0.00 | 0.01 | 0.00 | 79 | 1013.0 |
| 20260903225545 | 79 | 107 | 0.0 | 3.0 | 0.00 | 0.01 | 0.00 | 79 | 1013.0 |
| 20260903225047 | 79 | 80 | 0.0 | 3.0 | 0.00 | 0.01 | 0.00 | 79 | 1013.0 |
| 20260903224557 | 80 | 0 | 0.0 | 3.0 | 0.00 | 0.01 | 0.00 | 78 | 1013.1 |
| 20260903224049 | 80 | 0 | 0.0 | 4.0 | 0.00 | 0.01 | 0.00 | 78 | 1013.1 |
| 20260903223545 | 80 | 9 | 0.0 | 4.0 | 0.00 | 0.01 | 0.00 | 78 | 1013.3 |
| 20260903223103 | 81 | 10 | 0.0 | 5.0 | 0.00 | 0.01 | 0.00 | 78 | 1013.2 |
| 20260903222547 | 81 | 22 | 1.0 | 5.0 | 0.00 | 0.01 | 0.00 | 78 | 1013.1 |
| 20260903222043 | 82 | 9 | 1.0 | 5.0 | 0.00 | 0.01 | 0.00 | 80 | 1012.9 |
| 20260903221559 | 82 | 19 | 1.0 | 5.0 | 0.00 | 0.01 | 0.00 | 81 | 1012.9 |
| 20260903221045 | 82 | 5 | 0.0 | 2.0 | 0.00 | 0.01 | 0.00 | 82 | 1012.9 |
| 20260903220547 | 82 | 0 | 0.0 | 1.0 | 0.00 | 0.01 | 0.00 | 83 | 1013.0 |
| 20260903220100 | 82 | 0 | 0.0 | 3.0 | 0.00 | 0.01 | 0.00 | 83 | 1013.0 |
| 20260903215547 | 82 | 0 | 0.0 | 3.0 | 0.00 | 0.01 | 0.00 | 82 | 1012.9 |
| 20260903215044 | 82 | 0 | 0.0 | 1.0 | 0.00 | 0.01 | 0.00 | 83 | 1013.0 |
| 20260903214558 | 82 | 0 | 0.0 | 0.0 | 0.00 | 0.01 | 0.00 | 83 | 1013.1 |
| 20260903214043 | 82 | 0 | 0.0 | 0.0 | 0.00 | 0.01 | 0.00 | 83 | 1013.2 |
| 20260903213543 | 82 | 0 | 0.0 | 0.0 | 0.00 | 0.01 | 0.00 | 83 | 1013.0 |
| 20260903213103 | 82 | 0 | 0.0 | 2.0 | 0.00 | 0.01 | 0.00 | 82 | 1013.0 |
| 20260903212543 | 82 | 0 | 0.0 | 2.0 | 0.00 | 0.01 | 0.00 | 82 | 1013.0 |
| 20260903212046 | 82 | 0 | 0.0 | 2.0 | 0.00 | 0.01 | 0.00 | 83 | 1013.1 |
| 20260903211601 | 82 | 0 | 0.0 | 2.0 | 0.00 | 0.01 | 0.00 | 83 | 1013.0 |
| 20260903211047 | 82 | 0 | 0.0 | 0.0 | 0.00 | 0.01 | 0.00 | 84 | 1012.9 |
| 20260903210546 | 81 | 0 | 0.0 | 0.0 | 0.00 | 0.01 | 0.00 | 84 | 1013.0 |
| 20260903210120 | 81 | 0 | 0.0 | 1.0 | 0.00 | 0.01 | 0.00 | 83 | 1013.1 |
| 20260903205543 | 81 | 0 | 0.0 | 2.0 | 0.00 | 0.01 | 0.00 | 83 | 1013.0 |
| 20260903205044 | 81 | 0 | 0.0 | 4.0 | 0.00 | 0.01 | 0.00 | 83 | 1013.0 |
| 20260903204620 | 81 | 0 | 0.0 | 4.0 | 0.00 | 0.01 | 0.00 | 82 | 1013.0 |
| 20260903204046 | 81 | 188 | 1.0 | 5.0 | 0.00 | 0.01 | 0.00 | 83 | 1013.0 |
| 20260903203542 | 80 | 188 | 2.0 | 5.0 | 0.00 | 0.01 | 0.00 | 83 | 1013.1 |
| 20260903203100 | 80 | 188 | 2.0 | 5.0 | 0.00 | 0.01 | 0.00 | 83 | 1013.1 |
| 20260903202546 | 80 | 190 | 2.0 | 5.0 | 0.00 | 0.01 | 0.00 | 83 | 1013.1 |
| 20260903202044 | 80 | 187 | 3.0 | 5.0 | 0.00 | 0.01 | 0.00 | 84 | 1013.1 |
| 20260903201600 | 80 | 163 | 3.0 | 5.0 | 0.00 | 0.01 | 0.00 | 83 | 1013.1 |
| 20260903201048 | 80 | 185 | 2.0 | 5.0 | 0.00 | 0.01 | 0.00 | 85 | 1013.3 |
| 20260903200546 | 80 | 183 | 3.0 | 6.0 | 0.00 | 0.01 | 0.00 | 84 | 1013.1 |
| 20260903200059 | 80 | 194 | 4.0 | 7.0 | 0.00 | 0.01 | 0.00 | 84 | 1013.0 |
| 20260903195545 | 80 | 182 | 4.0 | 7.0 | 0.00 | 0.01 | 0.00 | 84 | 1013.1 |
| 20260903195046 | 79 | 194 | 4.0 | 7.0 | 0.00 | 0.01 | 0.00 | 84 | 1013.0 |
| 20260903194605 | 79 | 191 | 4.0 | 7.0 | 0.00 | 0.01 | 0.00 | 86 | 1013.1 |
| 20260903194045 | 78 | 173 | 3.0 | 6.0 | 0.00 | 0.01 | 0.00 | 89 | 1013.3 |
| 20260903193545 | 78 | 191 | 2.0 | 4.0 | 0.00 | 0.01 | 0.00 | 92 | 1013.4 |
| 20260903193059 | 78 | 186 | 1.0 | 4.0 | 0.00 | 0.01 | 0.00 | 94 | 1013.4 |
| 20260903192547 | 77 | 171 | 0.0 | 2.0 | 0.00 | 0.01 | 0.00 | 95 | 1013.5 |
| 20260903192046 | 77 | 0 | 0.0 | 2.0 | 0.00 | 0.01 | 0.00 | 95 | 1013.5 |
| 20260903191559 | 77 | 0 | 0.0 | 2.0 | 0.00 | 0.01 | 0.00 | 95 | 1013.5 |
| 20260903191046 | 77 | 171 | 0.0 | 2.0 | 0.00 | 0.01 | 0.00 | 96 | 1013.4 |
| 20260903190546 | 77 | 0 | 0.0 | 1.0 | 0.00 | 0.01 | 0.00 | 97 | 1013.6 |
| 20260903190106 | 77 | 0 | 0.0 | 2.0 | 0.00 | 0.01 | 0.00 | 97 | 1013.8 |
| 20260903185546 | 76 | 0 | 0.0 | 2.0 | 0.00 | 0.01 | 0.00 | 97 | 1013.8 |
| 20260903185046 | 76 | 171 | 0.0 | 2.0 | 0.00 | 0.01 | 0.00 | 97 | 1013.5 |
| 20260903184604 | 76 | 171 | 0.0 | 2.0 | 0.00 | 0.01 | 0.00 | 97 | 1013.5 |
| 20260903184046 | 75 | 171 | 0.0 | 2.0 | 0.00 | 0.01 | 0.00 | 97 | 1013.6 |
| 20260903183545 | 75 | 0 | 0.0 | 1.0 | 0.00 | 0.01 | 0.00 | 97 | 1013.8 |
| 20260903183104 | 75 | 0 | 0.0 | 2.0 | 0.00 | 0.01 | 0.00 | 97 | 1014.0 |
| 20260903182548 | 74 | 171 | 0.0 | 2.0 | 0.00 | 0.01 | 0.00 | 96 | 1014.0 |
| 20260903182050 | 74 | 0 | 0.0 | 2.0 | 0.00 | 0.01 | 0.00 | 96 | 1014.1 |
| 20260903181600 | 74 | 171 | 0.0 | 4.0 | 0.00 | 0.01 | 0.00 | 96 | 1014.1 |
| 20260903181046 | 74 | 171 | 1.0 | 4.0 | 0.00 | 0.01 | 0.00 | 96 | 1014.1 |
| 20260903180546 | 73 | 179 | 0.0 | 4.0 | 0.00 | 0.01 | 0.00 | 96 | 1014.0 |
| 20260903180105 | 73 | 61 | 0.0 | 3.0 | 0.00 | 0.01 | 0.00 | 96 | 1014.2 |
| 20260903175547 | 73 | 0 | 0.0 | 3.0 | 0.00 | 0.01 | 0.00 | 95 | 1014.1 |
| 20260903175046 | 73 | 57 | 0.0 | 3.0 | 0.00 | 0.01 | 0.00 | 95 | 1014.0 |
| 20260903174601 | 73 | 5 | 0.0 | 3.0 | 0.00 | 0.01 | 0.00 | 95 | 1014.3 |
| 20260903174045 | 73 | 22 | 0.0 | 3.0 | 0.00 | 0.01 | 0.00 | 95 | 1014.0 |
| 20260903173546 | 72 | 17 | 0.0 | 2.0 | 0.00 | 0.01 | 0.00 | 95 | 1013.8 |
| 20260903173106 | 72 | 0 | 0.0 | 2.0 | 0.00 | 0.01 | 0.00 | 95 | 1013.6 |
| 20260903172546 | 72 | 0 | 0.0 | 2.0 | 0.00 | 0.01 | 0.00 | 95 | 1013.3 |
| 20260903172045 | 72 | 0 | 0.0 | 4.0 | 0.00 | 0.01 | 0.00 | 94 | 1013.4 |
| 20260903171604 | 71 | 0 | 0.0 | 4.0 | 0.00 | 0.01 | 0.00 | 94 | 1013.4 |
| 20260903171047 | 71 | 0 | 0.0 | 0.0 | 0.00 | 0.01 | 0.00 | 94 | 1013.6 |
| 20260903170546 | 71 | 0 | 0.0 | 2.0 | 0.00 | 0.01 | 0.00 | 93 | 1013.9 |
| 20260903170108 | 71 | 0 | 0.0 | 2.0 | 0.00 | 0.01 | 0.00 | 93 | 1014.9 |
| 20260903165546 | 71 | 0 | 0.0 | 1.0 | 0.00 | 0.01 | 0.00 | 93 | 1015.2 |
| 20260903165046 | 71 | 0 | 0.0 | 1.0 | 0.00 | 0.01 | 0.00 | 93 | 1015.5 |
| 20260903164559 | 71 | 161 | 0.0 | 1.0 | 0.00 | 0.01 | 0.00 | 92 | 1015.7 |
| 20260903164046 | 71 | 0 | 0.0 | 0.0 | 0.00 | 0.01 | 0.00 | 92 | 1016.0 |
| 20260903163544 | 71 | 0 | 0.0 | 0.0 | 0.00 | 0.01 | 0.00 | 92 | 1016.3 |
| 20260903163056 | 71 | 0 | 0.0 | 1.0 | 0.00 | 0.01 | 0.00 | 92 | 1016.5 |
| 20260903162546 | 72 | 0 | 0.0 | 7.0 | 0.00 | 0.01 | 0.00 | 92 | 1016.6 |
| 20260903162045 | 72 | 0 | 1.0 | 12.0 | 0.00 | 0.01 | 0.00 | 92 | 1016.9 |
| 20260903161603 | 72 | 182 | 7.0 | 12.0 | 0.00 | 0.01 | 0.00 | 92 | 1017.4 |
| 20260903161046 | 72 | 192 | 4.0 | 7.0 | 0.00 | 0.01 | 0.00 | 91 | 1017.5 |
| 20260903160546 | 71 | 184 | 0.0 | 2.0 | 0.00 | 0.01 | 0.00 | 89 | 1017.2 |
| 20260903160107 | 72 | 0 | 0.0 | 4.0 | 0.00 | 0.01 | 0.00 | 88 | 1017.0 |
| 20260903155546 | 72 | 0 | 0.0 | 10.0 | 0.00 | 0.01 | 0.00 | 87 | 1016.6 |
| 20260903155046 | 72 | 0 | 1.0 | 10.0 | 0.00 | 0.01 | 0.00 | 87 | 1016.3 |
| 20260903154605 | 73 | 84 | 3.0 | 10.0 | 0.00 | 0.01 | 0.00 | 85 | 1016.0 |
| 20260903154046 | 73 | 37 | 0.0 | 5.0 | 0.00 | 0.01 | 0.00 | 83 | 1016.4 |
| 20260903153546 | 73 | 0 | 2.0 | 5.0 | 0.00 | 0.01 | 0.00 | 83 | 1016.2 |
| 20260903153103 | 74 | 40 | 2.0 | 4.0 | 0.00 | 0.01 | 0.00 | 81 | 1015.3 |
| 20260903152546 | 74 | 40 | 1.0 | 6.0 | 0.00 | 0.01 | 0.00 | 80 | 1015.5 |
| 20260903152045 | 74 | 0 | 0.0 | 7.0 | 0.00 | 0.01 | 0.00 | 78 | 1015.9 |
| 20260903151600 | 74 | 0 | 1.0 | 7.0 | 0.00 | 0.01 | 0.00 | 77 | 1015.8 |
| 20260903151045 | 74 | 0 | 1.0 | 4.0 | 0.00 | 0.01 | 0.00 | 76 | 1015.6 |
| 20260903150546 | 74 | 54 | 1.0 | 3.0 | 0.00 | 0.01 | 0.00 | 76 | 1015.7 |
| 20260903150118 | 74 | 0 | 0.0 | 4.0 | 0.00 | 0.01 | 0.00 | 76 | 1015.2 |
| 20260903145546 | 74 | 15 | 0.0 | 4.0 | 0.00 | 0.01 | 0.00 | 76 | 1014.7 |
| 20260903145047 | 74 | 5 | 0.0 | 4.0 | 0.00 | 0.01 | 0.00 | 76 | 1014.9 |
| 20260903144606 | 74 | 0 | 1.0 | 4.0 | 0.00 | 0.01 | 0.00 | 76 | 1014.9 |
| 20260903144047 | 74 | 350 | 1.0 | 4.0 | 0.00 | 0.01 | 0.00 | 76 | 1014.9 |
| 20260903143545 | 75 | 51 | 0.0 | 5.0 | 0.00 | 0.01 | 0.00 | 76 | 1014.9 |
| 20260903143105 | 75 | 5 | 1.0 | 6.0 | 0.00 | 0.01 | 0.00 | 76 | 1015.0 |
| 20260903142549 | 75 | 313 | 2.0 | 8.0 | 0.00 | 0.01 | 0.00 | 76 | 1014.8 |
| 20260903142046 | 75 | 36 | 2.0 | 8.0 | 0.00 | 0.01 | 0.00 | 77 | 1014.7 |
| 20260903141559 | 75 | 0 | 1.0 | 8.0 | 0.00 | 0.01 | 0.00 | 78 | 1015.0 |
| 20260903141049 | 75 | 0 | 1.0 | 5.0 | 0.00 | 0.01 | 0.00 | 78 | 1014.9 |
| 20260903140547 | 74 | 0 | 0.0 | 7.0 | 0.00 | 0.01 | 0.00 | 80 | 1014.9 |
| 20260903140114 | 74 | 21 | 1.0 | 7.0 | 0.00 | 0.01 | 0.00 | 82 | 1014.8 |
| 20260903135547 | 74 | 355 | 2.0 | 8.0 | 0.00 | 0.01 | 0.00 | 87 | 1014.8 |
| 20260903135046 | 75 | 0 | 2.0 | 8.0 | 0.00 | 0.01 | 0.00 | 91 | 1014.9 |
| 20260903134610 | 75 | 44 | 1.0 | 5.0 | 0.00 | 0.01 | 0.00 | 94 | 1015.0 |
| 20260903134047 | 75 | 22 | 2.0 | 6.0 | 0.00 | 0.01 | 0.00 | 95 | 1014.6 |
| 20260903133547 | 75 | 0 | 1.0 | 7.0 | 0.00 | 0.01 | 0.00 | 95 | 1014.6 |
| 20260903133108 | 75 | 26 | 3.0 | 7.0 | 0.00 | 0.01 | 0.00 | 96 | 1014.5 |
| 20260903132548 | 75 | 0 | 0.0 | 1.0 | 0.00 | 0.01 | 0.00 | 96 | 1013.9 |
| 20260903132045 | 75 | 0 | 0.0 | 0.0 | 0.00 | 0.01 | 0.00 | 96 | 1013.4 |
| 20260903131601 | 75 | 0 | 0.0 | 0.0 | 0.00 | 0.01 | 0.00 | 96 | 1013.2 |
| 20260903131045 | 75 | 0 | 0.0 | 0.0 | 0.00 | 0.01 | 0.00 | 96 | 1013.1 |
| 20260903130545 | 74 | 0 | 0.0 | 1.0 | 0.00 | 0.01 | 0.00 | 96 | 1013.1 |
| 20260903125546 | 74 | 0 | 0.0 | 4.0 | 0.00 | 0.01 | 0.00 | 96 | 1012.8 |
| 20260903125046 | 74 | 188 | 2.0 | 4.0 | 0.00 | 0.01 | 0.00 | 96 | 1012.8 |
| 20260903124557 | 74 | 188 | 0.0 | 2.0 | 0.00 | 0.01 | 0.00 | 95 | 1012.8 |
| 20260903124045 | 74 | 0 | 0.0 | 1.0 | 0.00 | 0.01 | 0.00 | 95 | 1012.8 |
| 20260903123549 | 74 | 0 | 0.0 | 1.0 | 0.00 | 0.01 | 0.00 | 95 | 1012.9 |
| 20260903123101 | 74 | 0 | 0.0 | 1.0 | 0.00 | 0.01 | 0.00 | 95 | 1012.9 |
| 20260903122546 | 73 | 0 | 0.0 | 1.0 | 0.00 | 0.01 | 0.00 | 95 | 1012.8 |
| 20260903122046 | 73 | 0 | 0.0 | 1.0 | 0.00 | 0.01 | 0.00 | 95 | 1013.0 |
| 20260903121558 | 73 | 0 | 0.0 | 0.0 | 0.00 | 0.01 | 0.00 | 95 | 1012.9 |
| 20260903121046 | 73 | 0 | 0.0 | 0.0 | 0.00 | 0.01 | 0.00 | 94 | 1012.9 |
| 20260903120545 | 73 | 0 | 0.0 | 0.0 | 0.00 | 0.01 | 0.00 | 94 | 1013.0 |
| 20260903120106 | 73 | 0 | 0.0 | 0.0 | 0.00 | 0.01 | 0.00 | 94 | 1012.9 |
| 20260903115546 | 73 | 0 | 0.0 | 0.0 | 0.00 | 0.01 | 0.00 | 94 | 1013.0 |
| 20260903115049 | 73 | 0 | 0.0 | 0.0 | 0.00 | 0.01 | 0.00 | 94 | 1013.0 |
| 20260903114558 | 73 | 0 | 0.0 | 0.0 | 0.00 | 0.01 | 0.00 | 94 | 1013.0 |
| 20260903114045 | 73 | 0 | 0.0 | 0.0 | 0.00 | 0.01 | 0.00 | 94 | 1013.0 |
| 20260903113550 | 73 | 0 | 0.0 | 0.0 | 0.00 | 0.01 | 0.00 | 94 | 1013.1 |
| 20260903113056 | 73 | 0 | 0.0 | 0.0 | 0.00 | 0.01 | 0.00 | 94 | 1013.1 |
| 20260903112548 | 73 | 0 | 0.0 | 0.0 | 0.00 | 0.01 | 0.00 | 94 | 1013.1 |
| 20260903112045 | 73 | 0 | 0.0 | 0.0 | 0.00 | 0.01 | 0.00 | 94 | 1013.0 |
| 20260903111558 | 73 | 0 | 0.0 | 0.0 | 0.00 | 0.01 | 0.00 | 94 | 1013.0 |
| 20260903111046 | 73 | 0 | 0.0 | 0.0 | 0.00 | 0.01 | 0.00 | 94 | 1012.9 |
| 20260903110546 | 73 | 0 | 0.0 | 0.0 | 0.00 | 0.01 | 0.00 | 94 | 1013.0 |
| 20260903105547 | 73 | 0 | 0.0 | 0.0 | 0.00 | 0.01 | 0.00 | 94 | 1013.0 |
| 20260903105048 | 73 | 0 | 0.0 | 0.0 | 0.00 | 0.01 | 0.00 | 94 | 1012.9 |
| 20260903104559 | 73 | 0 | 0.0 | 0.0 | 0.00 | 0.01 | 0.00 | 94 | 1013.0 |
| 20260903104045 | 73 | 0 | 0.0 | 0.0 | 0.00 | 0.01 | 0.00 | 94 | 1012.9 |
| 20260903103546 | 73 | 0 | 0.0 | 0.0 | 0.00 | 0.01 | 0.00 | 94 | 1012.9 |
| 20260903103105 | 73 | 0 | 0.0 | 0.0 | 0.00 | 0.01 | 0.00 | 94 | 1013.0 |
| 20260903102546 | 73 | 0 | 0.0 | 0.0 | 0.00 | 0.01 | 0.00 | 94 | 1012.9 |